Tracking 25723 objects as of 27-Jun-2022
HD Live streaming from Space Station
objects crossing your sky now

STARLINK-1837

Track STARLINK-1837 now!
10-day predictions
STARLINK-1837 is classified as:


NORAD ID: 47128
Int'l Code: 2020-088G
Perigee: 553.3 km
Apogee: 555.4 km
Inclination: 53.1 °
Period: 95.6 minutes
Semi major axis: 6925 km
RCS: Unknown
Launch date: November 25, 2020
Source: United States (US)
Launch site: AIR FORCE EASTERN TEST RANGE (AFETR)
aabbcc
Your satellite tracking list
Your tracking list is empty




NASA's NSSDC Master Catalog

Two Line Element Set (TLE):
1 47128U 20088G   22177.44854225 -.00000535  00000-0 -17015-4 0  9996
2 47128  53.0524 232.0671 0001506  68.2681 291.8468 15.06396643 88307
Source of the keplerian elements: AFSPC